Weather History for Cleveland, OH

Change the Weather History Date:

Wednesday, October 23, 2013

  Actual Average Record
Temperature  
Mean Temperature 43 °F 52 °F  
Max Temperature 48 °F 60 °F 80 °F (1963)
Min Temperature 37 °F 43 °F 25 °F (1969)
Degree Days  
Heating Degree Days 22 14  
Month to date heating degree days 176 238  
Since 1 July heating degree days 270 341  
Cooling Degree Days 0 0  
Month to date cooling degree days 34 10  
Year to date cooling degree days 889 814  
Moisture  
Dew Point 34 °F    
Average Humidity 71    
Maximum Humidity 92    
Minimum Humidity 49    
Precipitation  
Precipitation 0.22 in 0.09 in 1.30 in (2007)
Month to date precipitation 3.87 2.29  
Year to date precipitation 34.04 31.64  
Snow  
Snow T in 0.00 in - ()
Month to date snowfall T 0.1  
Since 1 July snowfall T 0.1  
Since 1 September snowfall T 0.1  
Snow Depth 0.00 in    
Sea Level Pressure  
Sea Level Pressure 29.86 in    
Wind  
Wind Speed 9 mph (WSW)    
Max Wind Speed 18 mph    
Max Gust Speed 23 mph    
Visibility 8 miles    
Events Rain , Snow    
T = Trace of Precipitation, MM = Missing Value Source: NWS Daily Summary

Daily Weather History Graph

Daily Weather History Graph

Search for Another Location

Airport:

Trip Planner

Search our weather history database for the weather conditions in past years. The results will help you decide how hot, cold, wet, or windy it might be!

Date:

Astronomy

Oct. 23, 2013 Rise Set
Actual Time 7:48 AM EDT 6:34 PM EDT
Civil Twilight 7:20 AM EDT 7:02 PM EDT
Nautical Twilight 6:48 AM EDT 7:34 PM EDT
Astronomical Twilight 6:16 AM EDT 8:06 PM EDT
Moon 10:02 PM EDT (10/23) 12:06 PM EDT (10/23)
Length of Visible Light 11h 41m
Length of Day
10h 45m
Waning Gibbous, 79% of the Moon is Illuminated
Oct 23
Waning Gibbous
Oct 26
Last Quarter
Nov 3
New
Nov 10
First Quarter
Nov 17
Full

Hourly Weather History & Observations

Time (EDT) Temp. Windchill Dew Point Humidity Pressure Visibility Wind Dir Wind Speed Gust Speed Precip Events Conditions
12:51 AM 43.0 °F 37.2 °F 30.9 °F 62% 29.91 in 10.0 mi West 10.4 mph - N/A   Overcast
1:51 AM 41.0 °F 36.4 °F 32.0 °F 70% 29.88 in 10.0 mi SW 6.9 mph - N/A   Overcast
2:51 AM 39.0 °F 34.8 °F 32.0 °F 76% 29.87 in 10.0 mi SW 5.8 mph - N/A   Mostly Cloudy
3:51 AM 39.0 °F 34.8 °F 33.1 °F 79% 29.85 in 10.0 mi SW 5.8 mph - N/A   Overcast
4:51 AM 37.9 °F 32.7 °F 34.0 °F 86% 29.83 in 10.0 mi SW 6.9 mph - N/A   Overcast
5:51 AM 39.0 °F 35.7 °F 34.0 °F 82% 29.82 in 10.0 mi WSW 4.6 mph - N/A   Overcast
6:44 AM 39.0 °F 34.0 °F 34.0 °F 82% 29.81 in 10.0 mi WSW 6.9 mph - N/A   Overcast
6:51 AM 39.0 °F 34.0 °F 34.0 °F 82% 29.82 in 10.0 mi WSW 6.9 mph - N/A   Overcast
7:10 AM 39.0 °F 34.0 °F 34.0 °F 82% 29.80 in 10.0 mi SW 6.9 mph - 0.00 in Rain Light Rain
7:51 AM 39.0 °F 32.8 °F 35.1 °F 86% 29.82 in 10.0 mi WSW 9.2 mph - 0.00 in Rain Light Rain
8:36 AM 39.0 °F 33.4 °F 36.0 °F 89% 29.81 in 4.0 mi WSW 8.1 mph - 0.02 in Rain Light Rain
8:51 AM 39.0 °F 33.4 °F 36.0 °F 89% 29.83 in 6.0 mi WSW 8.1 mph - 0.02 in Rain Light Rain
9:27 AM 39.0 °F 32.3 °F 36.0 °F 89% 29.83 in 5.0 mi WSW 10.4 mph - 0.03 in Rain Light Rain
9:51 AM 39.9 °F 34.5 °F 36.0 °F 86% 29.85 in 4.0 mi West 8.1 mph - 0.06 in Rain Light Rain
10:18 AM 39.9 °F 35.1 °F 36.0 °F 86% 29.83 in 2.5 mi SW 6.9 mph - 0.03 in Rain Light Rain
10:26 AM 39.9 °F 34.5 °F 37.0 °F 89% 29.84 in 5.0 mi WSW 8.1 mph - 0.04 in Rain Light Rain
10:35 AM 39.9 °F 35.1 °F 36.0 °F 86% 29.84 in 5.0 mi WSW 6.9 mph - 0.04 in Rain Light Rain
10:49 AM 39.2 °F 35.0 °F 37.4 °F 93% 29.84 in 2.0 mi SW 5.8 mph - 0.07 in Rain Rain
10:51 AM 39.9 °F 35.1 °F 37.0 °F 89% 29.85 in 2.0 mi SW 6.9 mph - 0.07 in Rain Rain
11:02 AM 39.9 °F 35.1 °F 36.0 °F 86% 29.84 in 5.0 mi WSW 6.9 mph - 0.04 in Rain Light Rain
11:05 AM 39.9 °F 36.7 °F 37.0 °F 89% 29.84 in 3.0 mi SW 4.6 mph - 0.02 in Rain Light Rain
11:38 AM 41.0 °F 37.1 °F 37.0 °F 86% 29.84 in 10.0 mi SW 5.8 mph - 0.03 in   Overcast
11:51 AM 42.1 °F 40.2 °F 37.9 °F 85% 29.85 in 10.0 mi West 3.5 mph - 0.03 in   Overcast
12:51 PM 46.0 °F 41.9 °F 35.1 °F 66% 29.85 in 10.0 mi NW 8.1 mph - N/A   Overcast
1:51 PM 46.9 °F - 32.0 °F 56% 29.85 in 10.0 mi NW 13.8 mph 20.7 mph N/A   Overcast
2:51 PM 46.9 °F - 30.9 °F 54% 29.86 in 10.0 mi NNW 16.1 mph 23.0 mph N/A   Overcast
3:51 PM 46.0 °F 41.4 °F 28.9 °F 51% 29.88 in 10.0 mi West 9.2 mph - N/A   Overcast
4:51 PM 46.9 °F - 30.9 °F 54% 29.88 in 10.0 mi West 11.5 mph 21.9 mph N/A   Overcast
5:51 PM 43.0 °F 36.4 °F 30.9 °F 62% 29.90 in 10.0 mi WSW 12.7 mph - 0.00 in   Mostly Cloudy
6:51 PM 41.0 °F 33.5 °F 30.9 °F 67% 29.92 in 7.0 mi NW 13.8 mph 23.0 mph 0.00 in Rain Light Rain
7:51 PM 39.9 °F 34.5 °F 32.0 °F 73% 29.93 in 10.0 mi SSW 8.1 mph - 0.01 in   Scattered Clouds
8:51 PM 41.0 °F 36.4 °F 30.9 °F 67% 29.94 in 10.0 mi WSW 6.9 mph - 0.01 in   Mostly Cloudy
9:51 PM 39.9 °F 35.8 °F 32.0 °F 73% 29.95 in 10.0 mi SW 5.8 mph - N/A   Mostly Cloudy
10:51 PM 39.0 °F 33.4 °F 32.0 °F 76% 29.96 in 7.0 mi West 8.1 mph - 0.01 in Rain Light Rain
11:51 PM 37.9 °F 30.5 °F 32.0 °F 79% 29.95 in 10.0 mi WSW 11.5 mph - 0.01 in   Scattered Clouds